• In Russia
  • List of Countries
  • For 7 days
  • Water Temperature
  • Satellite Maps
  • Weather Map
  • Weather Widgets
  • user-avatar
    Login

    Hourly Weather Etchmiadzin

    Today, 20 October, Friday

    Time Temperature Precipitation Wind Pressure Humidity
    00:00 +12°C° 0 mm 1 mps 688 mmHg 46%
    01:00 +12°C° 0 mm 1 mps 687 mmHg 47%
    02:00 +11°C° 0 mm 1 mps 687 mmHg 48%
    03:00 +11°C° 0 mm 1 mps 687 mmHg 49%
    04:00 +11°C° 0 mm 1 mps 687 mmHg 50%
    05:00 +10°C° 0 mm 1 mps 687 mmHg 52%
    06:00 +10°C° 0 mm 1 mps 687 mmHg 54%
    07:00 +12°C° 0 mm 1 mps 687 mmHg 49%
    08:00 +14°C° 0 mm 1 mps 688 mmHg 43%
    09:00 +16°C° 0 mm 1 mps 688 mmHg 38%
    10:00 +18°C° 0 mm 1 mps 688 mmHg 35%
    11:00 +20°C° 0 mm 1 mps 688 mmHg 32%
    12:00 +21°C° 0 mm 1 mps 688 mmHg 29%
    13:00 +21°C° 0 mm 1 mps 687 mmHg 28%
    14:00 +21°C° 0 mm 1 mps 687 mmHg 27%
    15:00 +22°C° 0 mm 1 mps 687 mmHg 27%
    16:00 +20°C° 0 mm 1 mps 687 mmHg 31%
    17:00 +18°C° 0 mm 1 mps 687 mmHg 35%
    18:00 +15°C° 0 mm 1 mps 686 mmHg 39%
    19:00 +14°C° 0 mm 1 mps 687 mmHg 40%
    20:00 +14°C° 0 mm 1 mps 687 mmHg 41%
    21:00 +13°C° 0 mm 1 mps 687 mmHg 42%
    22:00 +13°C° 0 mm 1 mps 687 mmHg 43%
    23:00 +13°C° 0 mm 1 mps 687 mmHg 44%

    Tomorrow, 21 October, Saturday

    Time Temperature Precipitation Wind Pressure Humidity
    00:00 +12°C° 0 mm 1 mps 687 mmHg 46%
    01:00 +12°C° 0 mm 1 mps 687 mmHg 47%
    02:00 +12°C° 0 mm 1 mps 687 mmHg 47%
    03:00 +10°C° 0 mm 0 mps 686 mmHg 48%
    04:00 +10°C° 0 mm 0 mps 686 mmHg 50%
    05:00 +10°C° 0 mm 0 mps 686 mmHg 51%
    06:00 +9°C° 0 mm 0 mps 686 mmHg 52%
    07:00 +11°C° 0 mm 0 mps 686 mmHg 46%
    08:00 +15°C° 0 mm 1 mps 687 mmHg 39%
    09:00 +18°C° 0 mm 1 mps 687 mmHg 33%
    10:00 +19°C° 0 mm 1 mps 687 mmHg 31%
    11:00 +20°C° 0 mm 1 mps 687 mmHg 28%
    12:00 +21°C° 0 mm 1 mps 686 mmHg 26%
    13:00 +21°C° 0 mm 1 mps 686 mmHg 25%
    14:00 +21°C° 0 mm 1 mps 686 mmHg 25%
    15:00 +21°C° 0 mm 1 mps 685 mmHg 25%
    16:00 +19°C° 0 mm 1 mps 685 mmHg 29%
    17:00 +18°C° 0 mm 1 mps 684 mmHg 32%
    18:00 +15°C° 0 mm 1 mps 684 mmHg 36%
    19:00 +14°C° 0 mm 1 mps 684 mmHg 37%
    20:00 +14°C° 0 mm 1 mps 684 mmHg 38%
    21:00 +13°C° 0 mm 1 mps 685 mmHg 39%
    22:00 +13°C° 0 mm 1 mps 684 mmHg 39%
    23:00 +13°C° 0 mm 1 mps 684 mmHg 40%

    Day after tomorrow, 22 October, Sunday

    Time Temperature Precipitation Wind Pressure Humidity
    00:00 +12°C° 0 mm 1 mps 684 mmHg 40%
    01:00 +12°C° 0 mm 1 mps 684 mmHg 40%
    02:00 +12°C° 0 mm 1 mps 684 mmHg 40%
    03:00 +11°C° 0 mm 1 mps 684 mmHg 39%
    04:00 +11°C° 0 mm 1 mps 684 mmHg 39%
    05:00 +11°C° 0 mm 1 mps 684 mmHg 39%
    06:00 +10°C° 0 mm 1 mps 684 mmHg 39%
    07:00 +12°C° 0 mm 1 mps 684 mmHg 36%
    08:00 +14°C° 0 mm 1 mps 684 mmHg 33%
    09:00 +16°C° 0 mm 1 mps 685 mmHg 29%
    10:00 +17°C° 0 mm 2 mps 684 mmHg 28%
    11:00 +18°C° 0 mm 2 mps 684 mmHg 27%
    12:00 +19°C° 0 mm 3 mps 684 mmHg 25%
    13:00 +19°C° 0 mm 3 mps 683 mmHg 25%
    14:00 +20°C° 0 mm 3 mps 683 mmHg 25%
    15:00 +20°C° 0 mm 3 mps 683 mmHg 25%
    16:00 +18°C° 0 mm 3 mps 683 mmHg 28%
    17:00 +17°C° 0 mm 2 mps 682 mmHg 31%
    18:00 +15°C° 0 mm 2 mps 682 mmHg 35%
    19:00 +15°C° 0 mm 1 mps 683 mmHg 36%
    20:00 +14°C° 0 mm 1 mps 683 mmHg 37%
    21:00 +13°C° 0 mm 1 mps 683 mmHg 38%
    22:00 +13°C° 0 mm 1 mps 683 mmHg 39%
    23:00 +13°C° 0 mm 1 mps 683 mmHg 39%

    23 October, Monday

    Time Temperature Precipitation Wind Pressure Humidity
    00:00 +12°C° 0 mm 1 mps 683 mmHg 40%
    01:00 +12°C° 0 mm 1 mps 683 mmHg 41%
    02:00 +11°C° 0 mm 1 mps 683 mmHg 41%
    03:00 +11°C° 0 mm 1 mps 683 mmHg 42%
    04:00 +11°C° 0 mm 1 mps 684 mmHg 43%
    05:00 +10°C° 0 mm 1 mps 684 mmHg 45%
    06:00 +10°C° 0 mm 1 mps 684 mmHg 47%
    07:00 +12°C° 0 mm 1 mps 684 mmHg 43%
    08:00 +14°C° 0 mm 1 mps 685 mmHg 40%
    09:00 +16°C° 0 mm 1 mps 685 mmHg 36%
    10:00 +17°C° 0 mm 2 mps 685 mmHg 34%
    11:00 +18°C° 0 mm 2 mps 685 mmHg 32%
    12:00 +19°C° 0 mm 2 mps 685 mmHg 29%
    13:00 +19°C° 0 mm 2 mps 685 mmHg 28%
    14:00 +19°C° 0 mm 3 mps 685 mmHg 27%
    15:00 +19°C° 0 mm 3 mps 684 mmHg 26%
    16:00 +18°C° 0 mm 2 mps 684 mmHg 29%
    17:00 +16°C° 0 mm 2 mps 684 mmHg 32%
    18:00 +14°C° 0 mm 1 mps 685 mmHg 35%
    19:00 +14°C° 0 mm 1 mps 685 mmHg 36%
    20:00 +13°C° 0 mm 1 mps 685 mmHg 37%
    21:00 +13°C° 0 mm 1 mps 685 mmHg 38%
    22:00 +13°C° 0 mm 2 mps 685 mmHg 40%
    23:00 +12°C° 0 mm 2 mps 686 mmHg 42%

    24 October, Tuesday

    Time Temperature Precipitation Wind Pressure Humidity
    00:00 +12°C° 0 mm 2 mps 686 mmHg 44%
    01:00 +12°C° 0 mm 2 mps 686 mmHg 46%
    02:00 +11°C° 0 mm 1 mps 686 mmHg 47%
    03:00 +11°C° 0 mm 1 mps 686 mmHg 49%
    04:00 +11°C° 0 mm 1 mps 686 mmHg 49%
    05:00 +11°C° 0 mm 1 mps 686 mmHg 50%
    06:00 +11°C° 0 mm 1 mps 686 mmHg 50%
    07:00 +13°C° 0 mm 1 mps 686 mmHg 44%
    08:00 +14°C° 0 mm 2 mps 687 mmHg 37%
    09:00 +16°C° 0 mm 2 mps 688 mmHg 31%
    10:00 +18°C° 0 mm 2 mps 687 mmHg 28%
    11:00 +19°C° 0 mm 3 mps 687 mmHg 26%
    12:00 +20°C° 0 mm 3 mps 687 mmHg 23%
    13:00 +20°C° 0 mm 3 mps 687 mmHg 23%
    14:00 +20°C° 0 mm 3 mps 687 mmHg 23%
    15:00 +20°C° 0 mm 3 mps 687 mmHg 23%
    16:00 +19°C° 0 mm 3 mps 687 mmHg 27%
    17:00 +17°C° 0 mm 2 mps 687 mmHg 31%
    18:00 +15°C° 0 mm 2 mps 687 mmHg 34%
    19:00 +15°C° 0 mm 2 mps 687 mmHg 34%
    20:00 +14°C° 0 mm 2 mps 688 mmHg 34%
    21:00 +14°C° 0 mm 2 mps 688 mmHg 33%
    22:00 +14°C° 0 mm 2 mps 688 mmHg 34%
    23:00 +14°C° 0 mm 2 mps 688 mmHg 35%

    25 October, Wednesday

    Time Temperature Precipitation Wind Pressure Humidity
    00:00 +14°C° 0 mm 2 mps 688 mmHg 36%
    01:00 +13°C° 0 mm 2 mps 688 mmHg 37%
    02:00 +13°C° 0 mm 2 mps 688 mmHg 38%
    03:00 +13°C° 0 mm 2 mps 688 mmHg 40%
    04:00 +13°C° 0 mm 2 mps 688 mmHg 41%
    05:00 +13°C° 0 mm 2 mps 688 mmHg 42%
    06:00 +12°C° 0 mm 2 mps 689 mmHg 44%
    07:00 +14°C° 0 mm 2 mps 689 mmHg 39%
    08:00 +17°C° 0 mm 2 mps 689 mmHg 35%
    09:00 +19°C° 0 mm 2 mps 690 mmHg 30%
    10:00 +20°C° 0 mm 3 mps 690 mmHg 29%
    11:00 +21°C° 0 mm 3 mps 689 mmHg 27%
    12:00 +22°C° 0 mm 3 mps 689 mmHg 25%
    13:00 +22°C° 0 mm 3 mps 689 mmHg 25%
    14:00 +22°C° 0 mm 3 mps 689 mmHg 25%
    15:00 +24°C° 0 mm 3 mps 688 mmHg 24%
    16:00 +21°C° 0 mm 3 mps 688 mmHg 28%
    17:00 +19°C° 0 mm 2 mps 688 mmHg 31%
    18:00 +17°C° 0 mm 2 mps 688 mmHg 35%
    19:00 +17°C° 0 mm 2 mps 688 mmHg 35%
    20:00 +16°C° 0 mm 2 mps 689 mmHg 36%
    21:00 +16°C° 0 mm 1 mps 689 mmHg 37%
    22:00 +16°C° 0 mm 1 mps 689 mmHg 37%
    23:00 +15°C° 0 mm 1 mps 689 mmHg 37%
    Show more